Regional Weather Roundup
Issued by NWS

Home | Current Version | Previous Version | Text Only | Print | Product List | Glossary Off
Versions: 1 2 3 4 5 6 7 8 9 10 11 12 13 14 15 16 17 18 19 20 21 22 23 24 25 26 27 28 29 30 31 32 33 34 35 36 37 38 39 40 41 42 43 44 45 46 47 48 49 50

000
ASUS43 KOAX 172102
RWRNE

WEATHER ROUNDUP FOR NEBRASKA
NATIONAL WEATHER SERVICE OMAHA NE
400 PM CDT WED SEP 17 2014

NOTES: SATELLITE DATA IS BEING USED TO AUGMENT CLOUD COVER ABOVE
       12000 FEET.
       "FAIR" INDICATES FEW OR NO CLOUDS BELOW 12,000 FEET WITH NO
       SIGNIFICANT WEATHER AND/OR OBSTRUCTIONS TO VISIBILITY.

  * THESE STATIONS DO NOT REPORT WEATHER SUCH AS RAIN...SNOW OR FOG.

NEZ001>004-019>022-054>056-172200-
NEBRASKA PANHANDLE

CITY           SKY/WX    TMP DP  RH WIND       PRES   REMARKS
SCOTTSBLUFF    MOSUNNY   88  40  18 W8        29.95F
ALLIANCE       MOSUNNY   86  43  22 E5        29.95S
CHADRON        MOSUNNY   86  50  28 NE5       29.92F
SIDNEY         SUNNY     90  40  17 VRB6      29.97F
$$

NEZ057>060-069>072-079>082-172200-
SOUTHWEST NEBRASKA

CITY           SKY/WX    TMP DP  RH WIND       PRES   REMARKS
NORTH PLATTE   SUNNY     85  61  44 E13       29.90F
IMPERIAL       SUNNY     87  50  27 S3        29.91F
MCCOOK         SUNNY     87  59  38 E9        29.89F
OGALLALA       SUNNY     88  53  29 SE3       29.91F
$$

NEZ005>010-023>029-035>040-094-172200-
NORTH CENTRAL NEBRASKA

CITY           SKY/WX    TMP DP  RH WIND       PRES   REMARKS
VALENTINE      MOSUNNY   82  54  37 NE13      29.92S
BROKEN BOW     SUNNY     85  60  42 SE9       29.91S
O`NEILL        MOSUNNY   78  60  52 E8        29.92S
ORD            SUNNY     82  61  48 E8        29.89S
THEDFORD       SUNNY     89  41  19 SE7       29.91F
$$

NEZ041-046>049-061>064-073>077-083>087-172200-
SOUTH CENTRAL NEBRASKA

CITY           SKY/WX    TMP DP  RH WIND       PRES   REMARKS
GRAND ISLAND   SUNNY     81  63  54 SE9       29.91S
HASTINGS       MOSUNNY   79  61  53 SE10      29.91R
HEBRON         MOSUNNY   79  63  56 SE7       29.90S
HOLDREGE       SUNNY     82  59  46 SE9       29.91S
KEARNEY *      SUNNY     81  63  54 E12       29.92F
$$

NEZ011>018-030>034-042>045-172200-
NORTHEAST NEBRASKA

CITY           SKY/WX    TMP DP  RH WIND       PRES   REMARKS
NORFOLK        SUNNY     81  59  47 E8        29.90S
ALBION         SUNNY     79  60  52 S8        29.91S
COLUMBUS *     SUNNY     81  63  54 E7        29.91S
TEKAMAH        SUNNY     83  58  42 E5        29.89S
WAYNE          SUNNY     81  58  45 SE3       29.90S
$$

NEZ050>053-065>068-078-088>093-172200-
SOUTHEAST NEBRASKA

CITY           SKY/WX    TMP DP  RH WIND       PRES   REMARKS
LINCOLN        SUNNY     79  63  57 S7        29.90F
OMAHA EPPLEY   MOSUNNY   79  60  52 VRB5      29.89F
BEATRICE       SUNNY     79  64  60 SE7       29.90S
FALLS CITY     MOSUNNY   79  65  62 E7        29.89F
NEBRASKA CITY  SUNNY     78  54  43 SE7       29.90F
PLATTSMOUTH    SUNNY     78  60  53 SE7       29.90F
$$

NEZ044-045-051>053-067-172200-
OMAHA AREA

CITY           SKY/WX    TMP DP  RH WIND       PRES   REMARKS
OMAHA EPPLEY   MOSUNNY   79  60  52 VRB5      29.89F
OFFUTT AFB     SUNNY     80  64  59 E5        29.89F
PLATTSMOUTH    SUNNY     78  60  53 SE7       29.90F
WAHOO          FAIR      80  60  50 SE7       29.90S
$$



USA.gov is the U.S. government's official web portal to all federal, state and local government web resources and services.